GFSSW_850_temp_060.txt.gz
Temp
9 9 9 9 10 10 10 10 10 10 10 10 10 10 11 11 12 13 13 14 14 14 15 15 16 17 17 17 18 19 15 16 18 20 21 23 22 24 25 25 25 28 29 29 29
9 9 10 10 10 10 11 11 11 11 11 10 10 10 10 11 12 14 15 14 14 14 15 15 16 16 17 17 18 17 13 16 19 21 21 22 22 23 24 24 25 25 28 27 29
9 9 10 10 10 11 11 11 11 11 11 11 11 11 11 12 12 14 14 14 14 15 15 14 15 16 16 17 18 17 17 18 20 21 21 22 22 23 23 22 24 24 25 28 27
9 10 10 10 11 11 11 11 11 11 11 11 11 11 11 11 12 15 15 14 15 15 15 15 15 16 16 15 18 16 18 19 19 20 20 21 22 22 22 23 24 24 25 26 28
9 9 10 10 11 11 11 12 12 11 11 11 12 12 12 11 14 15 15 15 15 15 16 15 15 15 15 16 17 16 17 19 20 20 21 21 21 22 22 23 24 24 25 25 26
8 9 10 10 11 11 12 12 12 11 11 11 12 12 12 10 15 16 16 15 15 15 16 16 16 16 16 16 15 17 16 17 19 19 20 20 21 22 23 23 24 24 25 25 26
9 9 9 10 11 11 12 12 12 11 11 11 11 11 12 15 15 15 16 16 16 16 16 16 16 16 16 14 17 16 15 16 17 19 19 21 20 20 23 23 24 24 25 25 26
9 9 9 10 11 12 12 12 12 12 11 11 11 11 13 15 15 16 16 16 16 16 16 16 16 16 16 16 15 14 15 14 17 18 19 19 19 21 22 22 22 23 24 25 25
8 9 10 10 11 12 12 12 12 12 12 12 11 11 13 15 15 16 16 16 16 16 16 16 16 16 15 13 11 12 12 14 16 18 18 18 18 19 21 21 22 23 23 24 25
8 9 10 11 11 12 12 12 12 12 12 12 11 10 15 16 16 16 16 16 16 16 16 17 16 13 10 10 10 12 13 14 16 18 17 16 16 17 19 20 20 20 21 22 24
8 9 10 11 12 12 12 13 12 12 12 12 13 13 14 16 16 16 16 16 16 16 14 15 12 11 12 12 14 14 14 14 15 17 17 16 16 17 18 18 18 19 19 20 21
8 9 11 11 12 12 12 12 12 12 11 13 13 13 14 15 15 16 16 16 16 13 13 11 11 15 15 15 15 14 13 13 15 16 16 15 16 17 17 17 18 19 19 20 21
8 9 11 12 12 12 12 12 12 12 11 13 15 15 16 16 16 16 16 16 15 14 13 12 13 15 15 14 14 13 13 12 13 14 15 14 14 15 16 17 18 19 19 20 20
8 10 11 12 12 12 12 12 12 12 8 13 16 16 16 16 15 17 16 16 15 14 13 12 14 15 14 15 14 13 14 13 13 12 10 14 11 14 15 15 16 17 18 19 19
9 10 11 11 12 11 11 12 12 12 9 15 16 17 16 16 17 17 17 16 14 14 14 12 14 13 14 14 14 13 13 12 12 11 11 12 10 13 14 14 15 16 18 18 19
10 10 11 11 11 11 11 12 12 8 11 16 16 16 15 16 16 17 17 16 17 13 13 13 16 14 13 14 14 13 11 10 9 9 8 11 11 13 13 14 15 16 17 17 15
10 10 11 11 11 11 12 12 8 9 15 14 14 15 14 14 15 16 16 15 12 12 11 12 13 13 13 12 12 10 8 5 6 7 8 12 11 12 13 14 15 13 11 12 13
11 10 11 11 11 11 11 9 10 14 14 15 14 14 14 14 14 14 14 12 12 11 9 9 9 12 13 12 11 10 9 6 8 8 9 11 9 11 13 14 12 11 12 13 14
11 11 11 11 11 11 11 7 8 12 14 13 13 13 12 13 13 12 11 12 12 11 9 9 9 12 12 13 12 10 8 9 8 8 7 10 11 12 12 11 11 11 11 12 14
11 11 11 11 11 11 7 9 12 14 14 13 11 12 10 11 11 11 12 13 13 12 11 10 7 11 12 12 11 10 10 8 5 7 7 9 10 11 10 10 10 10 9 11 14
11 11 11 11 11 11 5 8 12 14 14 13 12 11 11 11 11 11 12 13 12 11 10 8 7 9 10 10 9 8 8 7 6 6 5 8 8 9 9 9 8 9 10 10 12
10 7 11 11 9 7 7 11 12 13 14 13 12 11 11 11 10 11 11 12 12 11 9 9 6 5 8 10 10 10 8 7 5 6 7 8 8 12 10 9 9 9 9 9 9
8 9 11 11 5 5 8 11 12 12 13 12 12 12 11 10 9 10 11 13 13 11 9 8 5 6 7 8 9 10 9 9 7 7 6 8 8 12 9 10 10 9 9 10 8
8 5 10 10 9 8 6 8 10 12 12 11 11 11 9 9 10 9 10 12 12 11 11 9 5 6 6 8 7 8 9 9 8 7 8 9 10 10 9 10 9 9 10 9 10
7 5 5 3 5 4 6 8 9 10 11 11 10 10 8 7 8 8 9 10 10 11 10 7 6 6 7 8 9 9 9 10 10 10 8 10 9 9 9 9 9 10 10 10 11
5 4 5 4 5 5 6 8 8 9 9 8 9 9 8 7 7 7 8 8 7 9 8 5 5 6 7 9 9 9 10 11 11 10 9 7 8 8 9 10 10 10 11 9 11
4 4 4 4 3 4 5 5 6 7 8 9 8 6 7 7 8 9 9 9 8 7 7 6 5 6 7 8 8 7 9 8 9 9 7 7 8 7 7 8 8 8 9 9 9

GFSSW_850_temp_063.txt.gz
Temp
9 9 9 10 10 10 10 10 10 10 10 10 10 11 11 12 13 13 14 15 15 14 15 15 16 16 16 16 17 18 14 15 17 19 20 22 21 23 23 23 23 24 24 25 26
8 9 9 10 10 10 10 10 10 10 10 10 11 11 11 12 13 14 15 14 14 14 14 15 16 15 16 16 17 16 13 16 18 20 20 21 20 21 22 22 22 23 24 24 25
8 9 9 10 10 10 11 11 11 11 10 11 11 11 12 12 13 15 14 14 14 14 14 14 14 15 15 16 16 16 15 18 19 20 20 20 21 21 21 21 22 22 23 24 24
8 8 9 9 10 10 11 11 11 11 11 11 11 12 12 12 13 15 15 14 14 14 14 14 14 14 14 14 17 15 17 18 18 19 19 19 20 20 21 21 22 22 23 24 24
8 8 9 9 10 10 11 11 11 11 11 11 11 12 12 12 15 15 15 15 15 15 15 14 15 14 14 14 15 15 16 17 18 18 19 19 19 20 21 21 22 22 23 23 24
8 9 9 9 10 11 11 11 11 11 11 11 11 12 12 11 15 15 15 15 15 15 15 15 16 16 15 15 14 15 15 16 17 18 18 18 19 20 21 21 22 22 23 23 24
8 9 9 10 10 11 11 11 11 11 11 11 11 11 12 15 15 15 15 16 16 16 16 16 16 16 15 14 15 15 14 14 16 18 18 20 17 18 20 21 22 22 22 23 23
8 8 10 10 11 11 12 12 12 12 11 11 11 11 13 15 15 15 15 16 16 16 16 16 16 16 15 15 14 13 13 13 15 17 18 18 17 19 20 20 20 20 21 21 22
9 8 10 10 11 12 12 12 12 12 12 11 11 10 13 15 15 16 16 16 16 16 16 16 16 15 14 11 10 10 12 13 15 17 17 16 16 17 19 19 19 20 20 20 20
8 9 10 11 12 12 12 12 12 12 11 11 10 10 14 15 15 16 16 16 16 16 16 16 15 12 8 9 10 12 12 13 13 16 16 15 15 16 18 18 18 19 19 20 20
9 9 10 11 12 12 12 12 12 12 11 12 12 12 13 15 15 16 16 16 16 16 13 14 11 11 12 10 12 13 12 13 14 15 13 14 14 15 16 17 17 18 19 19 19
8 9 11 12 12 12 12 12 12 11 11 13 13 12 14 14 13 16 16 16 15 13 13 11 11 13 14 14 13 13 13 12 12 14 14 12 14 15 15 16 17 17 18 18 18
8 9 11 12 12 12 12 11 11 11 10 13 14 14 15 15 15 16 16 16 14 13 13 11 12 13 14 13 14 13 12 12 12 12 13 12 13 14 15 15 16 17 17 18 18
9 10 11 12 12 12 11 11 11 11 8 13 15 15 16 16 15 17 16 16 14 13 13 12 13 14 13 13 13 12 13 12 12 10 9 13 10 13 13 13 14 15 17 17 18
10 11 11 11 11 11 11 12 11 11 8 15 15 16 16 16 16 16 17 16 13 13 13 12 14 13 12 13 13 12 13 12 12 10 9 11 9 13 14 14 13 14 16 15 16
10 11 11 11 11 11 11 12 12 8 11 14 15 15 14 15 15 16 16 16 15 13 13 12 14 14 13 13 13 12 11 9 8 7 6 9 9 11 12 13 12 13 14 14 14
11 11 11 11 11 11 11 12 9 8 14 13 13 13 13 13 14 14 14 11 11 11 11 11 12 13 13 12 11 9 6 4 6 7 7 10 9 10 11 13 12 11 12 14 14
11 12 12 12 11 11 12 9 9 13 12 14 13 12 12 12 12 12 12 10 11 10 8 8 9 11 12 11 10 9 7 5 7 7 8 10 8 9 12 12 12 12 12 13 14
11 12 12 11 11 11 11 7 8 12 13 12 12 11 11 12 12 11 11 11 12 11 9 8 8 11 12 12 11 9 8 8 7 7 6 7 9 10 12 11 11 11 11 12 12
11 11 11 11 10 11 7 8 10 13 13 13 11 11 10 10 11 10 10 12 11 11 10 9 7 10 11 11 11 9 9 7 4 6 6 8 8 9 11 12 10 10 10 11 11
11 11 11 11 11 11 5 8 11 13 13 12 11 10 10 10 10 10 10 11 12 11 9 8 6 8 9 8 8 8 7 6 5 3 4 5 7 9 9 10 9 9 10 10 10
11 7 11 11 9 4 7 10 11 12 13 13 11 11 10 10 10 10 9 11 12 11 9 8 5 5 7 9 9 8 7 6 4 5 5 7 8 11 9 9 8 9 10 10 10
8 9 10 11 5 5 6 9 11 12 11 11 11 11 10 10 8 9 10 12 12 9 8 7 5 6 7 9 8 9 7 7 7 6 7 6 8 11 10 10 9 9 10 10 10
8 4 9 9 7 6 5 6 9 11 10 10 10 10 9 8 9 8 9 11 10 10 11 9 5 7 7 7 6 7 8 9 9 6 7 8 8 9 9 7 8 8 10 9 8
7 3 3 2 4 3 4 6 8 8 9 9 9 9 8 7 7 7 8 8 9 10 9 7 5 5 7 8 8 8 8 8 8 8 7 9 8 10 8 6 7 9 9 8 8
5 4 4 3 3 3 5 6 6 7 7 7 7 7 6 5 6 5 6 6 6 8 8 4 5 5 6 8 7 8 9 9 9 9 8 9 8 9 8 7 7 8 8 8 8
4 3 3 3 2 3 3 4 4 4 6 7 7 5 5 6 6 6 6 6 7 6 5 4 4 4 6 8 8 7 9 9 8 9 8 7 8 8 7 7 7 6 6 7 7

GFSSW_850_temp_069.txt.gz
Temp
8 8 9 9 10 10 11 11 11 11 11 11 11 12 12 13 13 13 14 14 15 15 15 15 15 15 16 16 17 17 19 20 21 21 21 21 22 21 22 22 22 22 22 22 22
8 8 8 9 9 10 11 11 11 11 11 11 12 12 13 13 14 14 14 14 14 13 14 14 14 15 15 16 17 19 19 20 20 21 21 21 21 21 21 22 22 22 22 21 22
8 8 9 9 9 10 11 11 12 12 12 12 12 12 13 13 14 14 14 14 14 14 14 14 14 14 16 15 17 18 19 19 20 20 20 21 20 20 21 21 22 21 21 22 22
7 8 8 9 10 10 11 12 12 12 12 12 12 12 13 13 15 14 14 14 14 14 14 14 14 14 16 17 16 17 17 18 19 19 19 20 19 19 20 21 20 20 21 21 22
8 8 8 9 10 10 11 12 12 12 12 12 12 12 13 13 14 14 14 14 15 14 14 14 14 14 16 16 16 16 17 17 18 18 18 18 19 19 20 20 20 20 21 21 21
8 8 8 9 10 11 11 12 12 12 12 12 12 12 12 13 15 15 15 15 15 15 15 14 14 14 15 16 16 15 16 17 17 18 18 18 19 19 20 20 20 20 20 20 21
8 8 9 10 10 11 11 12 12 12 12 12 12 12 12 14 15 15 15 15 15 15 15 15 15 14 14 16 14 15 16 17 17 18 19 19 18 19 18 19 20 20 20 20 20
8 9 9 10 11 11 12 12 12 12 11 11 11 11 13 15 15 15 15 15 15 15 15 15 15 14 14 14 14 15 15 16 17 17 17 18 18 19 17 18 19 18 19 19 19
8 9 10 11 11 11 12 12 12 12 11 11 11 11 13 14 15 15 15 15 15 15 15 15 14 14 14 15 15 14 16 15 16 16 17 17 17 17 16 16 17 18 18 18 18
9 9 10 11 11 11 12 12 11 11 11 10 10 11 14 14 14 15 15 15 15 15 14 14 13 15 14 15 15 15 15 15 15 16 16 17 16 17 16 16 16 17 18 17 18
9 10 10 11 11 12 12 12 11 11 11 12 12 12 13 14 15 15 15 15 15 15 15 13 15 15 15 14 15 14 14 14 15 16 15 16 16 17 16 16 16 16 17 17 17
9 10 11 11 11 11 12 11 10 10 10 12 12 12 14 14 13 15 15 15 15 15 14 14 15 15 15 14 14 14 14 15 15 15 15 16 15 16 17 17 16 16 16 17 17
10 10 11 12 11 11 11 11 11 11 10 12 13 13 14 14 14 15 15 15 15 14 14 14 15 14 14 15 14 14 14 14 14 14 15 14 16 16 16 16 16 16 15 15 16
11 11 12 12 11 11 11 11 11 11 13 14 15 15 15 14 15 15 15 15 15 15 14 14 14 15 14 14 15 14 14 14 13 13 13 14 14 16 16 15 16 16 16 15 15
11 12 12 12 11 11 11 11 11 11 13 15 15 15 15 15 15 16 15 15 16 15 14 15 15 14 14 14 14 14 13 13 13 13 12 14 12 15 14 15 16 16 15 15 14
11 12 11 11 11 10 11 11 11 13 13 14 15 14 15 14 14 14 14 14 14 14 14 15 13 14 14 13 13 13 13 13 11 12 12 13 12 14 15 16 15 16 15 15 14
12 12 11 11 10 10 11 11 12 12 14 13 14 14 13 13 14 13 13 14 14 13 14 14 14 13 13 13 12 13 12 12 12 12 13 12 12 14 15 15 15 15 15 14 13
12 11 11 11 10 10 11 12 12 12 13 14 14 13 13 13 13 13 13 13 12 13 13 13 13 13 13 13 13 12 12 12 11 12 13 12 12 14 14 14 14 14 13 13 13
12 11 11 10 10 11 11 11 12 12 13 12 13 12 12 13 12 12 12 13 13 13 13 12 11 12 13 13 13 11 11 11 11 11 10 13 13 14 15 15 14 14 13 13 12
12 11 11 11 11 11 11 10 11 12 12 12 11 12 12 12 12 12 12 12 12 12 12 12 11 12 13 12 11 12 12 10 10 9 10 12 12 13 14 14 14 14 13 12 12
11 11 11 11 11 11 10 10 11 11 12 12 12 12 12 12 12 11 12 12 12 12 11 11 10 11 11 11 12 11 11 10 10 10 10 10 13 13 14 14 13 13 12 12 11
10 11 10 11 10 5 9 9 9 11 11 12 11 12 11 11 11 11 11 12 11 12 11 11 10 10 11 13 12 11 11 11 9 9 9 10 11 14 14 14 12 13 12 11 10
9 9 10 11 9 9 8 9 9 10 11 11 11 11 10 10 10 10 11 11 11 11 11 10 9 9 10 9 9 9 10 11 10 9 9 9 12 13 14 14 13 12 11 10 10
8 9 9 9 5 6 6 8 9 9 10 9 10 10 9 9 10 10 10 11 10 10 10 9 10 9 9 10 10 10 10 10 10 8 10 10 11 13 13 13 13 11 10 10 9
8 4 4 8 7 5 4 6 7 8 8 8 9 8 7 7 8 8 9 9 9 9 9 9 8 9 9 10 10 10 10 11 10 10 9 10 11 12 13 13 12 11 10 9 9
6 5 3 4 3 4 5 6 6 7 6 8 7 7 6 6 7 7 7 7 7 8 9 8 8 9 9 9 9 9 10 10 10 11 11 11 10 12 12 12 11 10 10 10 10
5 4 3 4 4 5 6 6 6 5 6 6 6 5 5 7 6 5 5 5 7 7 8 7 7 7 8 9 9 8 10 11 11 12 11 10 12 14 12 12 11 11 10 10 9

GFSSW_850_temp_072.txt.gz
Temp
8 8 9 9 10 10 11 11 11 11 12 12 12 12 13 13 13 14 12 13 14 14 15 14 15 16 17 20 20 21 23 24 25 25 25 24 24 24 25 25 25 25 25 24 24
8 9 9 9 10 10 11 11 12 12 12 12 12 13 13 13 14 13 14 14 14 14 14 15 17 17 19 20 20 22 23 24 26 26 26 26 24 24 23 24 25 25 25 24 24
8 8 9 9 10 10 11 11 12 12 12 12 12 13 13 13 13 15 14 14 14 14 13 14 15 17 19 20 21 22 23 25 25 25 24 24 25 24 22 23 24 24 23 23 24
8 8 9 9 10 10 11 12 12 12 12 12 12 13 13 13 19 15 14 14 14 14 14 15 16 18 20 21 21 21 22 22 24 23 23 24 23 24 23 22 22 22 22 22 23
8 9 9 9 10 10 11 12 12 12 12 12 12 13 13 14 16 15 15 15 15 14 15 16 17 18 20 21 21 20 22 21 21 22 22 22 23 23 23 22 21 21 22 22 23
8 9 9 10 10 11 12 12 12 12 12 12 12 12 12 17 15 15 15 15 14 15 15 16 17 17 18 19 19 20 20 21 20 21 21 22 22 23 22 21 20 22 21 22 22
8 9 9 10 11 11 12 12 12 12 12 12 12 12 11 16 14 15 15 14 14 15 16 16 16 17 17 20 18 18 19 20 21 20 22 21 22 22 22 20 21 22 21 21 22
9 9 10 10 11 11 12 12 12 12 12 12 12 11 14 15 14 15 14 15 15 15 15 15 16 16 17 18 18 19 20 20 23 21 21 21 21 23 20 20 21 20 21 21 21
9 10 10 11 11 12 12 12 12 12 12 12 11 10 16 15 15 15 15 16 16 15 15 15 16 17 17 18 19 19 20 20 21 20 21 20 21 23 19 19 19 18 20 20 20
10 10 11 11 11 12 12 12 11 11 11 11 11 11 15 16 15 15 15 15 16 16 16 16 17 18 19 19 19 20 19 19 19 20 20 20 21 22 20 19 19 19 18 19 20
10 11 11 11 12 12 12 11 12 12 10 15 15 14 15 15 15 16 16 16 16 17 18 17 18 18 20 19 19 18 18 18 19 20 18 20 20 21 21 20 20 19 18 18 18
11 11 12 12 12 12 12 12 11 11 14 13 13 13 14 14 16 16 16 17 17 18 18 17 17 19 18 18 17 18 18 18 19 19 18 19 19 20 21 21 21 21 19 19 18
11 12 12 12 12 11 11 11 11 11 15 16 15 15 16 15 16 17 16 17 18 18 18 17 19 19 17 18 17 18 17 18 17 18 18 19 18 20 21 20 20 19 19 17 16
12 12 13 12 11 11 12 11 11 11 17 17 17 16 15 16 17 17 16 17 18 18 18 18 18 17 17 17 18 17 19 17 17 16 17 19 17 20 20 20 20 19 19 18 17
12 12 12 12 12 12 11 12 12 11 16 18 18 16 16 17 17 17 16 17 18 18 17 18 17 17 17 18 18 17 17 17 17 16 17 17 17 19 19 19 19 19 18 18 17
12 12 12 11 11 11 11 12 11 16 15 17 18 17 18 17 17 17 17 16 17 18 19 18 19 18 18 17 17 17 16 17 17 17 16 18 18 20 20 19 20 19 18 17 17
12 12 11 11 11 11 12 12 16 16 17 17 17 17 17 17 17 17 17 17 17 16 17 18 18 18 17 16 16 16 16 15 16 17 16 17 16 18 19 19 19 19 18 17 16
12 11 11 11 11 11 11 15 14 17 17 16 16 16 16 17 17 16 16 16 17 17 17 16 16 17 17 17 17 17 16 15 14 16 18 16 15 18 19 18 17 16 16 16 16
11 11 10 11 11 11 13 15 15 16 15 15 16 15 17 16 15 16 16 16 17 17 15 16 16 17 16 17 16 16 14 16 14 16 15 17 18 18 18 17 17 17 16 16 16
11 11 12 11 11 11 15 14 15 15 15 15 14 15 15 16 15 15 16 16 15 16 16 16 13 16 16 15 16 15 17 14 14 12 14 17 18 18 17 17 17 17 16 16 15
11 13 11 11 11 13 14 16 14 14 14 14 14 14 14 14 15 15 15 16 15 16 15 15 14 14 15 14 15 14 14 14 15 15 13 14 17 18 17 17 17 17 16 15 15
10 15 11 11 14 14 15 14 11 14 14 14 14 14 14 14 14 14 14 15 15 15 14 15 13 13 14 15 16 15 15 14 12 12 14 14 15 18 17 17 16 16 16 15 14
10 12 11 11 14 15 14 13 12 13 13 13 13 13 14 13 12 14 14 14 14 14 14 14 12 11 13 13 13 13 14 14 14 13 11 12 15 17 17 17 17 16 15 15 14
9 14 12 11 10 11 11 12 12 12 12 11 12 12 12 12 13 13 13 14 12 13 10 11 11 10 10 13 9 10 12 13 13 10 12 14 15 16 17 17 17 16 15 14 14
8 10 7 13 13 10 10 11 11 11 11 11 12 11 11 11 12 12 13 13 13 12 11 12 10 12 13 13 13 12 12 12 11 12 11 13 14 16 17 17 17 15 14 14 13
8 9 8 10 8 9 9 12 11 11 10 11 10 11 11 9 10 10 11 11 11 12 11 12 10 11 11 12 13 12 12 13 14 14 14 15 15 17 17 16 16 15 14 14 14
6 5 5 9 11 10 12 11 11 9 9 9 9 9 9 10 9 9 8 9 10 10 10 10 9 8 9 12 11 11 13 14 14 15 15 14 16 17 16 16 15 15 14 13 13

GFSSW_850_temp_075.txt.gz
Temp
8 8 9 9 10 10 11 11 12 12 12 12 13 13 14 14 14 14 15 16 15 15 16 16 18 19 20 21 23 24 25 25 26 27 28 29 28 26 25 25 26 28 27 27 26
9 9 9 9 10 10 11 11 12 12 12 13 13 13 14 14 15 16 16 15 15 15 15 18 19 20 21 22 23 25 25 25 27 28 28 29 29 27 25 25 25 25 27 27 26
9 9 9 9 10 10 11 11 12 12 13 13 13 13 14 14 13 18 15 15 15 15 15 17 19 20 21 23 24 25 24 27 27 27 27 28 28 27 27 25 25 23 24 25 25
9 9 9 10 10 11 11 11 12 12 12 13 13 13 14 14 20 16 15 15 15 14 17 18 19 20 22 24 24 25 25 25 26 26 27 28 27 27 27 26 24 23 24 24 24
9 9 10 10 11 11 12 12 12 12 12 13 13 13 14 15 19 16 15 15 15 16 18 19 20 21 23 24 24 25 25 25 25 25 25 25 26 26 26 26 25 23 22 23 24
9 9 10 10 11 11 12 12 12 12 12 13 13 13 13 18 17 15 15 15 16 17 18 19 20 20 21 23 23 24 24 24 24 25 24 25 25 25 25 25 25 24 23 23 24
9 10 10 11 11 12 12 13 13 13 13 13 12 13 13 18 17 16 16 16 17 17 18 19 18 19 21 22 22 22 22 23 23 24 24 24 24 25 24 25 25 24 23 23 24
10 10 11 11 12 12 12 12 13 12 12 12 12 11 15 17 17 16 17 17 17 17 17 17 18 19 20 21 21 21 22 22 25 25 24 23 22 25 25 25 25 24 23 23 23
10 10 11 12 12 12 12 12 12 13 12 12 12 11 18 16 16 17 17 18 18 17 17 17 17 19 20 20 21 23 22 23 24 25 24 24 23 25 24 23 23 23 23 22 23
10 11 11 12 12 12 12 12 12 13 13 12 12 14 16 18 17 17 17 17 18 18 18 18 19 20 21 22 21 23 23 23 23 24 23 22 23 24 25 23 22 22 22 21 22
11 11 12 12 12 12 13 12 12 12 13 17 17 17 17 17 16 17 18 17 18 18 19 20 20 20 22 23 22 22 21 21 23 24 23 21 22 23 24 24 23 22 22 21 21
11 12 12 12 12 12 13 15 14 13 16 17 17 17 17 17 18 18 18 18 19 19 21 20 20 21 23 21 20 20 20 21 22 23 22 21 21 22 23 24 23 23 22 22 21
12 12 12 12 12 12 14 13 13 14 16 19 18 18 18 17 18 19 18 18 20 20 21 20 22 21 21 20 19 20 20 20 21 22 22 20 20 21 23 23 23 22 22 22 22
12 12 13 12 12 14 15 13 14 13 18 20 19 19 18 18 19 19 19 19 20 20 21 21 22 20 20 19 20 19 21 21 20 19 19 22 20 22 23 23 23 22 22 22 20
12 12 12 12 13 15 14 13 14 13 18 21 20 18 19 19 20 19 19 19 19 20 20 20 21 19 19 20 21 19 21 19 19 19 19 19 19 21 23 23 22 22 22 21 20
12 12 12 12 12 14 13 13 13 17 17 20 20 20 20 20 20 20 19 18 19 20 21 21 21 21 21 21 20 20 19 19 19 19 18 20 20 21 22 22 22 22 20 20 20
12 12 12 12 14 13 13 14 17 18 20 20 20 21 20 20 21 20 20 20 19 18 19 20 21 22 21 19 20 19 18 17 17 18 18 22 20 21 22 22 22 22 21 20 19
12 12 11 12 12 12 13 17 16 20 21 20 19 20 19 20 21 20 19 19 20 20 19 18 19 21 21 19 19 19 18 17 15 16 18 20 18 21 22 22 20 20 19 19 18
13 12 11 12 11 12 14 17 18 20 18 18 19 18 19 20 18 19 19 19 20 20 18 18 18 21 19 20 19 19 18 19 16 17 17 19 20 22 21 21 20 19 19 19 18
12 13 14 12 12 12 16 16 19 19 18 18 17 18 18 19 19 18 19 20 18 19 19 18 16 19 19 19 19 18 19 16 13 13 15 18 19 19 20 19 20 19 19 18 18
11 15 12 13 11 14 16 18 19 18 17 16 17 17 17 17 18 18 18 19 19 18 18 18 16 16 18 17 17 17 16 16 17 16 13 15 17 18 17 17 19 20 19 18 18
11 17 12 12 15 18 18 18 14 17 17 17 17 16 16 16 16 16 17 18 19 17 16 17 14 14 16 18 18 17 17 16 12 12 15 15 16 18 18 18 19 19 18 18 18
12 14 12 12 15 18 18 18 17 17 16 16 16 16 16 15 14 16 16 18 17 17 16 15 14 12 14 16 13 13 12 14 16 16 13 13 15 19 18 18 19 18 18 18 18
11 15 15 14 14 14 15 15 16 16 15 15 15 15 15 14 15 15 16 17 16 15 12 13 13 12 11 13 13 10 10 11 7 11 14 14 16 15 12 11 17 19 18 18 17
12 14 11 15 16 15 14 15 15 15 15 15 14 15 14 13 14 14 15 16 16 16 14 14 12 12 13 14 14 14 15 15 14 14 13 13 13 16 17 18 19 18 18 18 17
10 11 12 12 13 14 13 14 15 15 14 14 13 14 14 13 13 13 13 14 13 14 14 14 12 13 12 14 14 14 15 15 15 15 15 16 16 17 18 18 18 18 18 17 17
8 7 8 10 14 14 15 14 14 14 13 12 12 12 12 12 12 11 11 11 12 12 12 12 12 10 10 13 13 12 14 15 15 16 16 15 16 18 18 18 18 16 15 16 16